Time,TemperatureF,DewpointF,PressureIn,WindDirection,WindDirectionDegrees,WindSpeedMPH,WindSpeedGustMPH,Humidity,HourlyPrecipIn,Conditions,Clouds,dailyrainin,SoftwareType,DateUTC
2015-01-30 00:03:00,33.3,30.1,30.21,WSW,255,4.0,4.0,88,0.00,,---,0.00,VWS V15.00,2015-01-30 05:03:00,
2015-01-30 00:08:00,33.3,30.1,30.21,NW,325,4.0,6.0,88,0.00,,---,0.00,VWS V15.00,2015-01-30 05:08:00,
2015-01-30 00:13:00,33.3,30.1,30.21,West,264,4.0,6.0,88,0.00,,---,0.00,VWS V15.00,2015-01-30 05:13:00,
2015-01-30 00:18:00,33.3,30.1,30.21,NW,309,4.0,6.0,88,0.00,,---,0.00,VWS V15.00,2015-01-30 05:18:00,
2015-01-30 00:23:00,33.3,30.1,30.22,WNW,302,3.0,8.0,88,0.00,,---,0.00,VWS V15.00,2015-01-30 05:23:00,
2015-01-30 00:28:00,33.4,30.0,30.22,West,263,2.0,8.0,87,0.00,,---,0.00,VWS V15.00,2015-01-30 05:28:00,
2015-01-30 00:33:00,33.4,29.7,30.21,WNW,287,2.0,5.0,86,0.00,,---,0.00,VWS V15.00,2015-01-30 05:33:00,
2015-01-30 00:38:00,33.4,29.7,30.21,WNW,301,2.0,8.0,86,0.00,,---,0.00,VWS V15.00,2015-01-30 05:38:00,
2015-01-30 00:43:00,33.5,29.8,30.21,NW,308,1.0,4.0,86,0.00,,---,0.00,VWS V15.00,2015-01-30 05:43:00,
2015-01-30 00:48:00,33.4,29.7,30.21,WNW,293,2.0,5.0,86,0.00,,---,0.00,VWS V15.00,2015-01-30 05:48:00,
2015-01-30 00:53:00,33.4,29.4,30.22,WNW,302,3.0,4.0,85,0.00,,---,0.00,VWS V15.00,2015-01-30 05:53:00,
2015-01-30 00:58:00,33.4,29.4,30.22,WNW,283,2.0,5.0,85,0.00,,---,0.00,VWS V15.00,2015-01-30 05:58:00,
2015-01-30 01:03:00,33.4,29.4,30.22,WNW,285,4.0,4.0,85,0.00,,---,0.00,VWS V15.00,2015-01-30 06:03:00,
2015-01-30 01:08:00,33.5,29.5,30.22,WNW,290,2.0,8.0,85,0.00,,---,0.00,VWS V15.00,2015-01-30 06:08:00,
2015-01-30 01:13:00,33.5,29.5,30.22,WNW,287,2.0,4.0,85,0.00,,---,0.00,VWS V15.00,2015-01-30 06:13:00,
2015-01-30 01:18:00,33.4,29.4,30.22,West,280,2.0,5.0,85,0.00,,---,0.00,VWS V15.00,2015-01-30 06:18:00,
2015-01-30 01:23:00,33.4,29.4,30.22,NW,321,5.0,7.0,85,0.00,,---,0.00,VWS V15.00,2015-01-30 06:23:00,
2015-01-30 01:28:00,33.5,29.2,30.22,WNW,293,5.0,8.0,84,0.00,,---,0.00,VWS V15.00,2015-01-30 06:28:00,
2015-01-30 01:33:00,33.5,29.2,30.22,NW,314,5.0,6.0,84,0.00,,---,0.00,VWS V15.00,2015-01-30 06:33:00,
2015-01-30 01:38:00,33.5,29.2,30.21,WNW,303,4.0,6.0,84,0.00,,---,0.00,VWS V15.00,2015-01-30 06:38:00,
2015-01-30 01:43:00,33.5,28.9,30.21,WNW,293,2.0,3.0,83,0.00,,---,0.00,VWS V15.00,2015-01-30 06:43:00,
2015-01-30 01:48:00,33.6,29.0,30.21,WNW,288,3.0,5.0,83,0.00,,---,0.00,VWS V15.00,2015-01-30 06:48:00,
2015-01-30 01:53:00,33.5,28.9,30.22,WNW,289,3.0,3.0,83,0.00,,---,0.00,VWS V15.00,2015-01-30 06:53:00,
2015-01-30 01:58:00,33.5,28.9,30.22,West,281,2.0,4.0,83,0.00,,---,0.00,VWS V15.00,2015-01-30 06:58:00,
2015-01-30 02:03:00,33.5,29.2,30.22,WNW,284,2.0,3.0,84,0.00,,---,0.00,VWS V15.00,2015-01-30 07:03:00,
2015-01-30 02:08:00,33.5,29.2,30.22,WNW,283,1.0,4.0,84,0.00,,---,0.00,VWS V15.00,2015-01-30 07:08:00,
2015-01-30 02:13:00,33.4,29.1,30.23,WNW,284,1.0,6.0,84,0.00,,---,0.00,VWS V15.00,2015-01-30 07:13:00,
2015-01-30 02:18:00,33.4,29.4,30.23,NW,308,4.0,6.0,85,0.00,,---,0.00,VWS V15.00,2015-01-30 07:18:00,
2015-01-30 02:23:00,33.4,29.4,30.23,West,281,2.0,7.0,85,0.00,,---,0.00,VWS V15.00,2015-01-30 07:23:00,
2015-01-30 02:28:00,33.4,29.4,30.23,WNW,288,1.0,7.0,85,0.00,,---,0.00,VWS V15.00,2015-01-30 07:28:00,
2015-01-30 02:33:00,33.4,29.4,30.23,WNW,290,3.0,6.0,85,0.00,,---,0.00,VWS V15.00,2015-01-30 07:33:00,
2015-01-30 02:38:00,33.3,29.6,30.23,WNW,288,2.0,6.0,86,0.00,,---,0.00,VWS V15.00,2015-01-30 07:38:00,
2015-01-30 02:43:00,33.3,29.6,30.23,West,271,4.0,7.0,86,0.00,,---,0.00,VWS V15.00,2015-01-30 07:43:00,
2015-01-30 02:48:00,33.3,29.6,30.23,WNW,283,6.0,8.0,86,0.00,,---,0.00,VWS V15.00,2015-01-30 07:48:00,
2015-01-30 02:53:00,33.2,29.8,30.24,WNW,302,5.0,6.0,87,0.00,,---,0.00,VWS V15.00,2015-01-30 07:53:00,
2015-01-30 02:58:00,33.2,29.8,30.24,WNW,297,1.0,8.0,87,0.00,,---,0.00,VWS V15.00,2015-01-30 07:58:00,
2015-01-30 03:03:00,33.2,29.5,30.24,WNW,302,2.0,4.0,86,0.00,,---,0.00,VWS V15.00,2015-01-30 08:03:00,
2015-01-30 03:08:00,33.2,29.5,30.24,NW,304,3.0,8.0,86,0.00,,---,0.00,VWS V15.00,2015-01-30 08:08:00,
2015-01-30 03:13:00,33.2,29.5,30.24,West,277,3.0,3.0,86,0.00,,---,0.00,VWS V15.00,2015-01-30 08:13:00,
2015-01-30 03:18:00,33.1,29.4,30.24,NW,304,2.0,4.0,86,0.00,,---,0.00,VWS V15.00,2015-01-30 08:18:00,
2015-01-30 03:23:00,33.1,29.4,30.24,NW,318,2.0,6.0,86,0.00,,---,0.00,VWS V15.00,2015-01-30 08:23:00,
2015-01-30 03:28:00,33.1,29.4,30.24,WNW,291,4.0,8.0,86,0.00,,---,0.00,VWS V15.00,2015-01-30 08:28:00,
2015-01-30 03:33:00,33.1,29.4,30.24,WNW,293,3.0,6.0,86,0.00,,---,0.00,VWS V15.00,2015-01-30 08:33:00,
2015-01-30 03:38:00,33.1,29.4,30.24,WNW,288,3.0,6.0,86,0.00,,---,0.00,VWS V15.00,2015-01-30 08:38:00,
2015-01-30 03:43:00,33.1,29.1,30.24,WNW,285,5.0,5.0,85,0.00,,---,0.00,VWS V15.00,2015-01-30 08:43:00,
2015-01-30 03:48:00,33.1,29.1,30.24,WNW,294,3.0,6.0,85,0.00,,---,0.00,VWS V15.00,2015-01-30 08:48:00,
2015-01-30 03:53:00,33.1,28.8,30.24,WNW,287,2.0,4.0,84,0.00,,---,0.00,VWS V15.00,2015-01-30 08:53:00,
2015-01-30 03:58:00,33.1,28.5,30.25,West,263,2.0,6.0,83,0.00,,---,0.00,VWS V15.00,2015-01-30 08:58:00,
2015-01-30 04:03:00,33.1,28.5,30.25,West,280,4.0,6.0,83,0.00,,---,0.00,VWS V15.00,2015-01-30 09:03:00,
2015-01-30 04:08:00,33.2,28.3,30.25,WNW,297,2.0,8.0,82,0.00,,---,0.00,VWS V15.00,2015-01-30 09:08:00,
2015-01-30 04:13:00,33.2,28.0,30.25,West,275,2.0,4.0,81,0.00,,---,0.00,VWS V15.00,2015-01-30 09:13:00,
2015-01-30 04:18:00,33.1,27.9,30.25,WNW,293,1.0,6.0,81,0.00,,---,0.00,VWS V15.00,2015-01-30 09:18:00,
2015-01-30 04:23:00,33.1,27.9,30.25,WNW,295,2.0,5.0,81,0.00,,---,0.00,VWS V15.00,2015-01-30 09:23:00,
2015-01-30 04:28:00,33.1,27.9,30.25,WNW,298,3.0,8.0,81,0.00,,---,0.00,VWS V15.00,2015-01-30 09:28:00,
2015-01-30 04:33:00,33.1,27.9,30.25,WNW,291,3.0,7.0,81,0.00,,---,0.00,VWS V15.00,2015-01-30 09:33:00,
2015-01-30 04:38:00,33.1,27.9,30.25,West,260,1.0,7.0,81,0.00,,---,0.00,VWS V15.00,2015-01-30 09:38:00,
2015-01-30 04:43:00,33.0,28.1,30.26,WNW,298,1.0,4.0,82,0.00,,---,0.00,VWS V15.00,2015-01-30 09:43:00,
2015-01-30 04:48:00,32.9,28.0,30.26,NNW,330,3.0,6.0,82,0.00,,---,0.00,VWS V15.00,2015-01-30 09:48:00,
2015-01-30 04:53:00,32.9,28.0,30.26,NW,321,3.0,6.0,82,0.00,,---,0.00,VWS V15.00,2015-01-30 09:53:00,
2015-01-30 04:58:00,32.9,28.0,30.26,West,262,5.0,6.0,82,0.00,,---,0.00,VWS V15.00,2015-01-30 09:58:00,
2015-01-30 05:03:00,32.9,27.7,30.27,NW,306,4.0,5.0,81,0.00,,---,0.00,VWS V15.00,2015-01-30 10:03:00,
2015-01-30 05:08:00,32.8,27.6,30.26,West,261,4.0,8.0,81,0.00,,---,0.00,VWS V15.00,2015-01-30 10:08:00,
2015-01-30 05:13:00,32.8,27.6,30.26,NW,305,2.0,4.0,81,0.00,,---,0.00,VWS V15.00,2015-01-30 10:13:00,
2015-01-30 05:18:00,32.7,27.2,30.26,WNW,295,6.0,13.0,80,0.00,,---,0.00,VWS V15.00,2015-01-30 10:18:00,
2015-01-30 05:22:00,32.7,27.2,30.27,WNW,288,3.0,5.0,80,0.00,,---,0.00,VWS V15.00,2015-01-30 10:22:00,
2015-01-30 05:27:00,32.7,27.2,30.27,NW,306,3.0,6.0,80,0.00,,---,0.00,VWS V15.00,2015-01-30 10:27:00,
2015-01-30 05:32:00,32.7,26.9,30.27,West,266,8.0,8.0,79,0.00,,---,0.00,VWS V15.00,2015-01-30 10:32:00,
2015-01-30 05:37:00,32.7,26.9,30.27,WNW,285,5.0,8.0,79,0.00,,---,0.00,VWS V15.00,2015-01-30 10:37:00,
2015-01-30 05:42:00,32.7,26.9,30.28,West,274,3.0,4.0,79,0.00,,---,0.00,VWS V15.00,2015-01-30 10:42:00,
2015-01-30 05:47:00,32.7,26.6,30.27,NW,314,4.0,8.0,78,0.00,,---,0.00,VWS V15.00,2015-01-30 10:47:00,
2015-01-30 05:52:00,32.7,26.6,30.28,NW,309,3.0,6.0,78,0.00,,---,0.00,VWS V15.00,2015-01-30 10:52:00,
2015-01-30 05:57:00,32.7,26.6,30.28,NW,305,3.0,13.0,78,0.00,,---,0.00,VWS V15.00,2015-01-30 10:57:00,
2015-01-30 06:02:00,32.7,26.9,30.28,NW,310,5.0,6.0,79,0.00,,---,0.00,VWS V15.00,2015-01-30 11:02:00,
2015-01-30 06:07:00,32.5,26.7,30.29,West,266,0.0,6.0,79,0.00,,---,0.00,VWS V15.00,2015-01-30 11:07:00,
2015-01-30 06:12:00,32.5,27.0,30.29,NW,317,6.0,6.0,80,0.00,,---,0.00,VWS V15.00,2015-01-30 11:12:00,
2015-01-30 06:17:00,32.2,27.0,30.30,NW,316,4.0,17.0,81,0.00,,---,0.00,VWS V15.00,2015-01-30 11:17:00,
2015-01-30 06:22:00,32.1,27.2,30.30,WNW,297,3.0,5.0,82,0.00,,---,0.00,VWS V15.00,2015-01-30 11:22:00,
2015-01-30 06:27:00,32.0,27.1,30.31,NW,304,4.0,7.0,82,0.00,,---,0.00,VWS V15.00,2015-01-30 11:27:00,
2015-01-30 06:32:00,31.7,27.4,30.31,NNW,342,8.0,8.0,84,0.00,,---,0.00,VWS V15.00,2015-01-30 11:32:00,
2015-01-30 06:37:00,31.1,27.1,30.32,NW,309,4.0,14.0,85,0.00,,---,0.00,VWS V15.00,2015-01-30 11:37:00,
2015-01-30 06:42:00,30.7,27.0,30.33,WNW,293,8.0,8.0,86,0.00,,---,0.00,VWS V15.00,2015-01-30 11:42:00,
2015-01-30 06:47:00,30.4,26.1,30.33,NNE,21,2.0,10.0,84,0.00,,---,0.00,VWS V15.00,2015-01-30 11:47:00,
2015-01-30 06:52:00,30.2,25.7,30.33,WNW,286,3.0,7.0,83,0.00,,---,0.00,VWS V15.00,2015-01-30 11:52:00,
2015-01-30 06:57:00,29.9,24.8,30.34,North,359,3.0,7.0,81,0.00,,---,0.00,VWS V15.00,2015-01-30 11:57:00,
2015-01-30 07:02:00,29.6,24.2,30.34,North,353,7.0,13.0,80,0.00,,---,0.00,VWS V15.00,2015-01-30 12:02:00,
2015-01-30 07:07:00,29.4,22.5,30.34,NW,309,2.0,13.0,75,0.00,,---,0.00,VWS V15.00,2015-01-30 12:07:00,
2015-01-30 07:12:00,29.3,21.4,30.34,NW,326,9.0,10.0,72,0.00,,---,0.00,VWS V15.00,2015-01-30 12:12:00,
2015-01-30 07:17:00,29.2,20.6,30.34,WNW,298,5.0,12.0,70,0.00,,---,0.00,VWS V15.00,2015-01-30 12:17:00,
2015-01-30 07:22:00,29.1,20.5,30.35,NW,316,5.0,5.0,70,0.00,,---,0.00,VWS V15.00,2015-01-30 12:22:00,
2015-01-30 07:27:00,29.0,20.5,30.35,NW,307,5.0,8.0,70,0.00,,---,0.00,VWS V15.00,2015-01-30 12:27:00,
2015-01-30 07:32:00,28.8,19.9,30.36,West,276,3.0,5.0,69,0.00,,---,0.00,VWS V15.00,2015-01-30 12:32:00,
2015-01-30 07:37:00,28.8,19.9,30.36,WNW,300,2.0,9.0,69,0.00,,---,0.00,VWS V15.00,2015-01-30 12:37:00,
2015-01-30 07:42:00,28.7,19.5,30.37,WNW,297,6.0,10.0,68,0.00,,---,0.00,VWS V15.00,2015-01-30 12:42:00,
2015-01-30 07:47:00,28.6,19.7,30.37,NW,323,10.0,12.0,69,0.00,,---,0.00,VWS V15.00,2015-01-30 12:47:00,
2015-01-30 07:52:00,28.5,20.0,30.37,NNE,16,6.0,8.0,70,0.00,,---,0.00,VWS V15.00,2015-01-30 12:52:00,
2015-01-30 07:57:00,28.5,20.0,30.38,NNW,343,7.0,16.0,70,0.00,,---,0.00,VWS V15.00,2015-01-30 12:57:00,
2015-01-30 08:02:00,28.3,19.5,30.38,NW,318,4.0,8.0,69,0.00,,---,0.00,VWS V15.00,2015-01-30 13:02:00,
2015-01-30 08:07:00,28.2,19.4,30.38,NW,312,4.0,8.0,69,0.00,,---,0.00,VWS V15.00,2015-01-30 13:07:00,
2015-01-30 08:12:00,28.0,18.5,30.38,WNW,302,6.0,16.0,67,0.00,,---,0.00,VWS V15.00,2015-01-30 13:12:00,
2015-01-30 08:17:00,27.9,18.4,30.38,North,5,6.0,16.0,67,0.00,,---,0.00,VWS V15.00,2015-01-30 13:17:00,
2015-01-30 08:22:00,27.8,18.3,30.39,NW,307,6.0,10.0,67,0.00,,---,0.00,VWS V15.00,2015-01-30 13:22:00,
2015-01-30 08:27:00,27.8,18.6,30.39,NNW,332,3.0,13.0,68,0.00,,---,0.00,VWS V15.00,2015-01-30 13:27:00,
2015-01-30 08:32:00,27.7,18.5,30.40,NW,319,3.0,9.0,68,0.00,,---,0.00,VWS V15.00,2015-01-30 13:32:00,
2015-01-30 08:37:00,27.5,18.3,30.40,WNW,285,4.0,9.0,68,0.00,,---,0.00,VWS V15.00,2015-01-30 13:37:00,
2015-01-30 08:42:00,27.3,17.5,30.40,NNE,32,7.0,7.0,66,0.00,,---,0.00,VWS V15.00,2015-01-30 13:42:00,
2015-01-30 08:47:00,27.2,16.6,30.41,NNE,27,4.0,11.0,64,0.00,,---,0.00,VWS V15.00,2015-01-30 13:47:00,
2015-01-30 08:52:00,27.2,16.3,30.41,West,278,6.0,6.0,63,0.00,,---,0.00,VWS V15.00,2015-01-30 13:52:00,
2015-01-30 08:57:00,27.3,16.4,30.41,NW,309,2.0,15.0,63,0.00,,---,0.00,VWS V15.00,2015-01-30 13:57:00,
2015-01-30 09:02:00,27.5,16.9,30.41,West,278,3.0,5.0,64,0.00,,---,0.00,VWS V15.00,2015-01-30 14:02:00,
2015-01-30 09:07:00,27.6,17.0,30.42,North,359,6.0,11.0,64,0.00,,---,0.00,VWS V15.00,2015-01-30 14:07:00,
2015-01-30 09:12:00,27.6,17.0,30.42,NW,311,5.0,7.0,64,0.00,,---,0.00,VWS V15.00,2015-01-30 14:12:00,
2015-01-30 09:17:00,27.7,17.8,30.42,NNW,333,4.0,7.0,66,0.00,,---,0.00,VWS V15.00,2015-01-30 14:17:00,
2015-01-30 09:22:00,27.3,18.1,30.43,North,9,4.0,11.0,68,0.00,,---,0.00,VWS V15.00,2015-01-30 14:22:00,
2015-01-30 09:27:00,27.2,18.4,30.43,NW,322,2.0,11.0,69,0.00,,---,0.00,VWS V15.00,2015-01-30 14:27:00,
2015-01-30 09:32:00,27.0,17.9,30.42,NNW,329,1.0,6.0,68,0.00,,---,0.00,VWS V15.00,2015-01-30 14:32:00,
2015-01-30 09:37:00,27.0,18.2,30.43,NW,311,2.0,7.0,69,0.00,,---,0.00,VWS V15.00,2015-01-30 14:37:00,
2015-01-30 09:42:00,27.4,18.2,30.43,NW,305,3.0,4.0,68,0.00,,---,0.00,VWS V15.00,2015-01-30 14:42:00,
2015-01-30 09:47:00,27.5,18.7,30.43,NW,305,5.0,16.0,69,0.00,,---,0.00,VWS V15.00,2015-01-30 14:47:00,
2015-01-30 09:52:00,27.1,18.3,30.44,West,281,3.0,5.0,69,0.00,,---,0.00,VWS V15.00,2015-01-30 14:52:00,
2015-01-30 09:57:00,26.9,18.4,30.44,NW,306,4.0,9.0,70,0.00,,---,0.00,VWS V15.00,2015-01-30 14:57:00,
2015-01-30 10:02:00,26.8,18.0,30.44,NW,317,4.0,6.0,69,0.00,,---,0.00,VWS V15.00,2015-01-30 15:02:00,
2015-01-30 10:07:00,26.9,18.1,30.45,WSW,257,1.0,9.0,69,0.00,,---,0.00,VWS V15.00,2015-01-30 15:07:00,
2015-01-30 10:12:00,27.4,18.6,30.45,WNW,302,6.0,6.0,69,0.00,,---,0.00,VWS V15.00,2015-01-30 15:12:00,
2015-01-30 10:17:00,27.4,18.6,30.45,WNW,295,4.0,11.0,69,0.00,,---,0.00,VWS V15.00,2015-01-30 15:17:00,
2015-01-30 10:22:00,27.3,18.1,30.45,NW,319,3.0,3.0,68,0.00,,---,0.00,VWS V15.00,2015-01-30 15:22:00,
2015-01-30 10:27:00,27.3,18.1,30.45,NW,312,6.0,9.0,68,0.00,,---,0.00,VWS V15.00,2015-01-30 15:27:00,
2015-01-30 10:32:00,26.9,17.1,30.45,NW,304,3.0,8.0,66,0.00,,---,0.00,VWS V15.00,2015-01-30 15:32:00,
2015-01-30 10:37:00,26.9,17.1,30.46,North,359,4.0,10.0,66,0.00,,---,0.00,VWS V15.00,2015-01-30 15:37:00,
2015-01-30 10:42:00,27.6,18.1,30.46,West,276,6.0,8.0,67,0.00,,---,0.00,VWS V15.00,2015-01-30 15:42:00,
2015-01-30 10:47:00,27.6,17.7,30.46,WNW,301,2.0,9.0,66,0.00,,---,0.00,VWS V15.00,2015-01-30 15:47:00,
2015-01-30 10:52:00,27.4,17.9,30.46,WNW,290,4.0,4.0,67,0.00,,---,0.00,VWS V15.00,2015-01-30 15:52:00,
2015-01-30 10:57:00,27.4,18.2,30.47,WNW,302,3.0,8.0,68,0.00,,---,0.00,VWS V15.00,2015-01-30 15:57:00,
2015-01-30 11:02:00,27.2,18.0,30.47,NW,326,7.0,9.0,68,0.00,,---,0.00,VWS V15.00,2015-01-30 16:02:00,
2015-01-30 11:07:00,27.2,18.7,30.47,NW,313,3.0,9.0,70,0.00,,---,0.00,VWS V15.00,2015-01-30 16:07:00,
2015-01-30 11:12:00,26.9,17.8,30.47,NNW,332,7.0,7.0,68,0.00,,---,0.00,VWS V15.00,2015-01-30 16:12:00,
2015-01-30 11:17:00,26.7,17.6,30.47,NNW,338,4.0,7.0,68,0.00,,---,0.00,VWS V15.00,2015-01-30 16:17:00,
2015-01-30 11:22:00,26.6,17.5,30.47,NNW,330,3.0,7.0,68,0.00,,---,0.00,VWS V15.00,2015-01-30 16:22:00,
2015-01-30 11:27:00,26.6,17.1,30.47,WNW,293,6.0,13.0,67,0.00,,---,0.00,VWS V15.00,2015-01-30 16:27:00,
2015-01-30 11:32:00,26.7,17.2,30.48,NW,323,5.0,7.0,67,0.00,,---,0.00,VWS V15.00,2015-01-30 16:32:00,
2015-01-30 11:37:00,26.8,17.7,30.48,NW,314,6.0,11.0,68,0.00,,---,0.00,VWS V15.00,2015-01-30 16:37:00,
2015-01-30 11:42:00,26.7,18.2,30.48,WNW,301,1.0,3.0,70,0.00,,---,0.00,VWS V15.00,2015-01-30 16:42:00,
2015-01-30 11:47:00,26.6,17.8,30.49,NNE,20,3.0,11.0,69,0.00,,---,0.00,VWS V15.00,2015-01-30 16:47:00,
2015-01-30 11:52:00,26.8,18.3,30.48,North,5,5.0,5.0,70,0.00,,---,0.00,VWS V15.00,2015-01-30 16:52:00,
2015-01-30 11:57:00,26.9,18.1,30.48,ENE,64,8.0,9.0,69,0.00,,---,0.00,VWS V15.00,2015-01-30 16:57:00,
2015-01-30 12:02:00,27.1,17.6,30.48,NNW,339,3.0,6.0,67,0.00,,---,0.00,VWS V15.00,2015-01-30 17:02:00,
2015-01-30 12:07:00,27.4,17.9,30.48,NNW,342,4.0,11.0,67,0.00,,---,0.00,VWS V15.00,2015-01-30 17:07:00,
2015-01-30 12:12:00,27.5,17.3,30.48,NNW,333,3.0,4.0,65,0.00,,---,0.00,VWS V15.00,2015-01-30 17:12:00,
2015-01-30 12:17:00,27.7,16.8,30.48,NW,314,5.0,9.0,63,0.00,,---,0.00,VWS V15.00,2015-01-30 17:17:00,
2015-01-30 12:22:00,27.7,16.8,30.48,NNE,23,3.0,8.0,63,0.00,,---,0.00,VWS V15.00,2015-01-30 17:22:00,
2015-01-30 12:27:00,28.1,17.1,30.47,NNW,329,6.0,13.0,63,0.00,,---,0.00,VWS V15.00,2015-01-30 17:27:00,
2015-01-30 12:32:00,27.9,16.6,30.47,NE,43,4.0,6.0,62,0.00,,---,0.00,VWS V15.00,2015-01-30 17:32:00,
2015-01-30 12:37:00,28.6,17.6,30.47,WNW,285,5.0,11.0,63,0.00,,---,0.00,VWS V15.00,2015-01-30 17:37:00,
2015-01-30 12:42:00,28.9,17.5,30.47,NNW,338,0.0,3.0,62,0.00,,---,0.00,VWS V15.00,2015-01-30 17:42:00,
2015-01-30 12:47:00,29.1,17.7,30.47,NW,311,3.0,6.0,62,0.00,,---,0.00,VWS V15.00,2015-01-30 17:47:00,
2015-01-30 12:52:00,28.9,17.2,30.47,West,269,4.0,8.0,61,0.00,,---,0.00,VWS V15.00,2015-01-30 17:52:00,
2015-01-30 12:57:00,28.7,17.3,30.46,NNW,334,5.0,8.0,62,0.00,,---,0.00,VWS V15.00,2015-01-30 17:57:00,
2015-01-30 13:02:00,28.4,17.1,30.46,NNW,334,3.0,5.0,62,0.00,,---,0.00,VWS V15.00,2015-01-30 18:02:00,
2015-01-30 13:07:00,28.8,18.2,30.46,NNW,335,8.0,9.0,64,0.00,,---,0.00,VWS V15.00,2015-01-30 18:07:00,
2015-01-30 13:12:00,28.7,17.3,30.46,NW,308,6.0,7.0,62,0.00,,---,0.00,VWS V15.00,2015-01-30 18:12:00,
2015-01-30 13:17:00,29.4,19.1,30.46,West,259,3.0,7.0,65,0.00,,---,0.00,VWS V15.00,2015-01-30 18:17:00,
2015-01-30 13:22:00,29.3,17.5,30.46,WNW,294,5.0,7.0,61,0.00,,---,0.00,VWS V15.00,2015-01-30 18:22:00,
2015-01-30 13:27:00,29.2,18.5,30.45,WNW,290,3.0,7.0,64,0.00,,---,0.00,VWS V15.00,2015-01-30 18:27:00,
2015-01-30 13:32:00,29.9,19.2,30.46,WNW,283,2.0,3.0,64,0.00,,---,0.00,VWS V15.00,2015-01-30 18:32:00,
2015-01-30 13:37:00,30.0,18.2,30.46,West,264,4.0,5.0,61,0.00,,---,0.00,VWS V15.00,2015-01-30 18:37:00,
2015-01-30 13:42:00,29.6,17.0,30.46,NNW,328,5.0,5.0,59,0.00,,---,0.00,VWS V15.00,2015-01-30 18:42:00,
2015-01-30 13:47:00,29.5,18.1,30.46,NW,309,2.0,12.0,62,0.00,,---,0.00,VWS V15.00,2015-01-30 18:47:00,
2015-01-30 13:52:00,29.7,17.9,30.46,WNW,301,5.0,6.0,61,0.00,,---,0.00,VWS V15.00,2015-01-30 18:52:00,
2015-01-30 13:57:00,29.5,18.1,30.47,WNW,293,5.0,6.0,62,0.00,,---,0.00,VWS V15.00,2015-01-30 18:57:00,
2015-01-30 14:02:00,29.0,17.6,30.47,NNW,331,3.0,4.0,62,0.00,,---,0.00,VWS V15.00,2015-01-30 19:02:00,
2015-01-30 14:07:00,28.9,17.9,30.46,WNW,290,4.0,8.0,63,0.00,,---,0.00,VWS V15.00,2015-01-30 19:07:00,
2015-01-30 14:12:00,28.9,17.9,30.46,West,262,4.0,5.0,63,0.00,,---,0.00,VWS V15.00,2015-01-30 19:12:00,
2015-01-30 14:17:00,29.2,18.2,30.46,WNW,291,2.0,9.0,63,0.00,,---,0.00,VWS V15.00,2015-01-30 19:17:00,
2015-01-30 14:22:00,29.6,18.6,30.46,NNW,333,6.0,6.0,63,0.00,,---,0.00,VWS V15.00,2015-01-30 19:22:00,
2015-01-30 14:27:00,29.3,17.5,30.46,NNE,20,3.0,9.0,61,0.00,,---,0.00,VWS V15.00,2015-01-30 19:27:00,
2015-01-30 14:32:00,29.2,17.8,30.46,North,5,7.0,7.0,62,0.00,,---,0.00,VWS V15.00,2015-01-30 19:32:00,
2015-01-30 14:37:00,29.2,17.8,30.45,NE,37,7.0,9.0,62,0.00,,---,0.00,VWS V15.00,2015-01-30 19:37:00,
2015-01-30 14:42:00,29.4,18.4,30.45,North,349,5.0,6.0,63,0.00,,---,0.00,VWS V15.00,2015-01-30 19:42:00,
2015-01-30 14:47:00,29.5,18.5,30.45,NW,325,2.0,9.0,63,0.00,,---,0.00,VWS V15.00,2015-01-30 19:47:00,
2015-01-30 14:52:00,29.5,18.5,30.45,NW,315,2.0,3.0,63,0.00,,---,0.00,VWS V15.00,2015-01-30 19:52:00,
2015-01-30 14:57:00,29.5,18.1,30.45,NNE,19,6.0,7.0,62,0.00,,---,0.00,VWS V15.00,2015-01-30 19:57:00,
2015-01-30 15:02:00,29.6,18.2,30.45,WNW,293,2.0,2.0,62,0.00,,---,0.00,VWS V15.00,2015-01-30 20:02:00,
2015-01-30 15:07:00,29.5,18.1,30.45,NW,312,2.0,6.0,62,0.00,,---,0.00,VWS V15.00,2015-01-30 20:07:00,
2015-01-30 15:12:00,29.0,17.6,30.45,WNW,295,2.0,3.0,62,0.00,,---,0.00,VWS V15.00,2015-01-30 20:12:00,
2015-01-30 15:17:00,29.2,18.5,30.45,West,263,4.0,6.0,64,0.00,,---,0.00,VWS V15.00,2015-01-30 20:17:00,
2015-01-30 15:22:00,29.2,18.2,30.45,NW,308,4.0,5.0,63,0.00,,---,0.00,VWS V15.00,2015-01-30 20:22:00,
2015-01-30 15:27:00,29.3,18.3,30.45,NW,306,2.0,5.0,63,0.00,,---,0.00,VWS V15.00,2015-01-30 20:27:00,
2015-01-30 15:32:00,29.0,17.6,30.45,WNW,285,1.0,1.0,62,0.00,,---,0.00,VWS V15.00,2015-01-30 20:32:00,
2015-01-30 15:37:00,28.8,17.4,30.46,NW,321,3.0,7.0,62,0.00,,---,0.00,VWS V15.00,2015-01-30 20:37:00,
2015-01-30 15:42:00,28.9,18.3,30.45,NNW,328,3.0,4.0,64,0.00,,---,0.00,VWS V15.00,2015-01-30 20:42:00,
2015-01-30 15:47:00,29.1,17.7,30.46,NNW,342,3.0,10.0,62,0.00,,---,0.00,VWS V15.00,2015-01-30 20:47:00,
2015-01-30 15:52:00,29.1,18.1,30.46,ENE,72,1.0,3.0,63,0.00,,---,0.00,VWS V15.00,2015-01-30 20:52:00,
2015-01-30 15:57:00,29.0,18.0,30.46,WNW,302,3.0,5.0,63,0.00,,---,0.00,VWS V15.00,2015-01-30 20:57:00,
2015-01-30 16:02:00,29.2,18.2,30.46,NW,309,5.0,8.0,63,0.00,,---,0.00,VWS V15.00,2015-01-30 21:02:00,
2015-01-30 16:07:00,29.4,18.7,30.46,NNE,19,1.0,8.0,64,0.00,,---,0.00,VWS V15.00,2015-01-30 21:07:00,
2015-01-30 16:12:00,29.6,18.6,30.47,West,277,5.0,5.0,63,0.00,,---,0.00,VWS V15.00,2015-01-30 21:12:00,
2015-01-30 16:17:00,29.4,18.4,30.47,NW,307,1.0,5.0,63,0.00,,---,0.00,VWS V15.00,2015-01-30 21:17:00,
2015-01-30 16:22:00,29.3,18.3,30.46,NNW,332,3.0,3.0,63,0.00,,---,0.00,VWS V15.00,2015-01-30 21:22:00,
2015-01-30 16:27:00,29.3,18.3,30.46,NW,321,2.0,4.0,63,0.00,,---,0.00,VWS V15.00,2015-01-30 21:27:00,
2015-01-30 16:32:00,29.4,18.0,30.46,NE,37,2.0,3.0,62,0.00,,---,0.00,VWS V15.00,2015-01-30 21:32:00,
2015-01-30 16:37:00,29.1,17.7,30.46,NNW,340,1.0,9.0,62,0.00,,---,0.00,VWS V15.00,2015-01-30 21:37:00,
2015-01-30 16:42:00,29.2,17.8,30.46,NNE,32,4.0,4.0,62,0.00,,---,0.00,VWS V15.00,2015-01-30 21:42:00,
2015-01-30 16:47:00,29.1,17.7,30.46,NE,43,2.0,6.0,62,0.00,,---,0.00,VWS V15.00,2015-01-30 21:47:00,
2015-01-30 16:52:00,28.9,17.5,30.46,NE,49,2.0,2.0,62,0.00,,---,0.00,VWS V15.00,2015-01-30 21:52:00,
2015-01-30 16:57:00,28.9,17.9,30.46,NNW,345,1.0,6.0,63,0.00,,---,0.00,VWS V15.00,2015-01-30 21:57:00,
2015-01-30 17:02:00,29.0,18.0,30.46,NNW,337,3.0,4.0,63,0.00,,---,0.00,VWS V15.00,2015-01-30 22:02:00,
2015-01-30 17:07:00,29.0,18.0,30.46,West,275,1.0,5.0,63,0.00,,---,0.00,VWS V15.00,2015-01-30 22:07:00,
2015-01-30 17:12:00,28.9,18.3,30.47,NW,315,3.0,3.0,64,0.00,,---,0.00,VWS V15.00,2015-01-30 22:12:00,
2015-01-30 17:17:00,29.1,18.1,30.47,NW,309,1.0,3.0,63,0.00,,---,0.00,VWS V15.00,2015-01-30 22:17:00,
2015-01-30 17:22:00,29.0,18.0,30.47,North,5,4.0,4.0,63,0.00,,---,0.00,VWS V15.00,2015-01-30 22:22:00,
2015-01-30 17:27:00,28.7,17.7,30.47,NE,41,2.0,6.0,63,0.00,,---,0.00,VWS V15.00,2015-01-30 22:27:00,